Time,TemperatureF,DewpointF,PressureIn,WindDirection,WindDirectionDegrees,WindSpeedMPH,WindSpeedGustMPH,Humidity,HourlyPrecipIn,Conditions,Clouds,dailyrainin,SoftwareType,DateUTC
2013-04-09 00:15:00,59.2,31.6,29.81,West,270,5.8,-999.0,35,-99.99,,,0.00,Acu-Link.com,2013-04-09 07:15:00,
2013-04-09 00:30:00,59.4,31.7,29.81,ESE,112,2.7,-999.0,35,-99.99,,,0.00,Acu-Link.com,2013-04-09 07:30:00,
2013-04-09 00:46:00,58.8,31.2,29.82,ENE,67,3.7,-999.0,35,-99.99,,,0.00,Acu-Link.com,2013-04-09 07:46:00,
2013-04-09 01:31:00,58.1,32.0,29.82,NNE,22,2.2,-999.0,37,-99.99,,,0.00,Acu-Link.com,2013-04-09 08:31:00,
2013-04-09 01:46:00,57.4,31.3,29.83,SSE,157,3.2,-999.0,37,-99.99,,,0.00,Acu-Link.com,2013-04-09 08:46:00,
2013-04-09 02:02:00,57.6,31.5,29.83,SSE,157,6.8,-999.0,37,-99.99,,,0.00,Acu-Link.com,2013-04-09 09:02:00,
2013-04-09 02:17:00,57.6,31.5,29.82,ENE,67,2.7,-999.0,37,-99.99,,,0.00,Acu-Link.com,2013-04-09 09:17:00,
2013-04-09 02:32:00,57.0,31.6,29.82,NE,45,4.2,-999.0,38,-99.99,,,0.00,Acu-Link.com,2013-04-09 09:32:00,
2013-04-09 02:47:00,56.3,31.0,29.83,SE,135,5.3,-999.0,38,-99.99,,,0.00,Acu-Link.com,2013-04-09 09:47:00,
2013-04-09 03:02:00,56.3,31.7,29.83,South,180,4.2,-999.0,39,-99.99,,,0.00,Acu-Link.com,2013-04-09 10:02:00,
2013-04-09 03:17:00,55.9,31.3,29.83,South,180,3.7,-999.0,39,-99.99,,,0.00,Acu-Link.com,2013-04-09 10:17:00,
2013-04-09 03:33:00,55.6,32.3,29.83,West,270,3.7,-999.0,41,-99.99,,,0.00,Acu-Link.com,2013-04-09 10:33:00,
2013-04-09 03:48:00,55.4,32.1,29.83,WNW,292,1.7,-999.0,41,-99.99,,,0.00,Acu-Link.com,2013-04-09 10:48:00,
2013-04-09 04:19:00,54.9,32.2,29.83,NNW,337,3.7,-999.0,42,-99.99,,,0.00,Acu-Link.com,2013-04-09 11:19:00,
2013-04-09 04:34:00,54.7,32.1,29.84,West,270,4.7,-999.0,42,-99.99,,,0.00,Acu-Link.com,2013-04-09 11:34:00,
2013-04-09 04:49:00,54.0,32.0,29.84,West,270,2.2,-999.0,43,-99.99,,,0.00,Acu-Link.com,2013-04-09 11:49:00,
2013-04-09 05:04:00,53.2,32.4,29.84,North,0,2.2,-999.0,45,-99.99,,,0.00,Acu-Link.com,2013-04-09 12:04:00,
2013-04-09 05:20:00,54.0,32.0,29.84,ESE,112,2.2,-999.0,43,-99.99,,,0.00,Acu-Link.com,2013-04-09 12:20:00,
2013-04-09 05:35:00,53.8,32.4,29.85,West,270,2.7,-999.0,44,-99.99,,,0.00,Acu-Link.com,2013-04-09 12:35:00,
2013-04-09 05:50:00,53.6,32.2,29.85,WSW,247,1.7,-999.0,44,-99.99,,,0.00,Acu-Link.com,2013-04-09 12:50:00,
2013-04-09 06:05:00,53.4,32.0,29.86,NNW,337,2.7,-999.0,44,-99.99,,,0.00,Acu-Link.com,2013-04-09 13:05:00,
2013-04-09 06:20:00,53.4,31.5,29.87,NE,45,1.7,-999.0,43,-99.99,,,0.00,Acu-Link.com,2013-04-09 13:20:00,
2013-04-09 06:36:00,53.2,31.3,29.87,SW,225,2.2,-999.0,43,-99.99,,,0.00,Acu-Link.com,2013-04-09 13:36:00,
2013-04-09 07:06:00,53.1,31.8,29.87,West,270,1.7,-999.0,44,-99.99,,,0.00,Acu-Link.com,2013-04-09 14:06:00,
2013-04-09 07:22:00,54.1,32.1,29.88,SW,225,2.7,-999.0,43,-99.99,,,0.00,Acu-Link.com,2013-04-09 14:22:00,
2013-04-09 07:37:00,54.7,32.6,29.88,NW,315,2.7,-999.0,43,-99.99,,,0.00,Acu-Link.com,2013-04-09 14:37:00,
2013-04-09 07:52:00,58.6,33.7,29.88,West,270,5.8,-999.0,39,-99.99,,,0.00,Acu-Link.com,2013-04-09 14:52:00,
2013-04-09 08:07:00,59.2,32.9,29.88,ESE,112,3.2,-999.0,37,-99.99,,,0.00,Acu-Link.com,2013-04-09 15:07:00,
2013-04-09 08:23:00,59.9,32.9,29.88,ESE,112,8.9,-999.0,36,-99.99,,,0.00,Acu-Link.com,2013-04-09 15:23:00,
2013-04-09 08:38:00,60.3,33.9,29.88,SSW,202,4.2,-999.0,37,-99.99,,,0.00,Acu-Link.com,2013-04-09 15:38:00,
2013-04-09 08:53:00,61.3,34.1,29.88,NW,315,2.7,-999.0,36,-99.99,,,0.00,Acu-Link.com,2013-04-09 15:53:00,
2013-04-09 09:08:00,62.2,34.2,29.89,WNW,292,4.7,-999.0,35,-99.99,,,0.00,Acu-Link.com,2013-04-09 16:08:00,
2013-04-09 09:23:00,63.5,33.9,29.88,SW,225,1.1,-999.0,33,-99.99,,,0.00,Acu-Link.com,2013-04-09 16:23:00,
2013-04-09 09:38:00,64.4,33.1,29.88,West,270,3.7,-999.0,31,-99.99,,,0.00,Acu-Link.com,2013-04-09 16:38:00,
2013-04-09 09:53:00,65.1,33.7,29.88,East,90,3.7,-999.0,31,-99.99,,,0.00,Acu-Link.com,2013-04-09 16:53:00,
2013-04-09 10:08:00,66.7,35.9,29.88,South,180,2.7,-999.0,32,-99.99,,,0.00,Acu-Link.com,2013-04-09 17:08:00,
2013-04-09 10:39:00,68.0,35.4,29.89,ESE,112,3.2,-999.0,30,-99.99,,,0.00,Acu-Link.com,2013-04-09 17:39:00,
2013-04-09 11:24:00,68.7,36.8,29.88,NNW,337,3.2,-999.0,31,-99.99,,,0.00,Acu-Link.com,2013-04-09 18:24:00,
2013-04-09 11:40:00,69.6,37.6,29.88,NE,45,3.2,-999.0,31,-99.99,,,0.00,Acu-Link.com,2013-04-09 18:40:00,
2013-04-09 11:55:00,69.6,36.8,29.88,WSW,247,9.9,-999.0,30,-99.99,,,0.00,Acu-Link.com,2013-04-09 18:55:00,
2013-04-09 12:25:00,71.6,37.7,29.86,WSW,247,2.2,-999.0,29,-99.99,,,0.00,Acu-Link.com,2013-04-09 19:25:00,
2013-04-09 12:40:00,72.1,37.2,29.86,NNW,337,5.8,-999.0,28,-99.99,,,0.00,Acu-Link.com,2013-04-09 19:40:00,
2013-04-09 13:11:00,74.3,38.1,29.85,ESE,112,6.8,-999.0,27,-99.99,,,0.00,Acu-Link.com,2013-04-09 20:11:00,
2013-04-09 13:26:00,73.8,37.7,29.85,NNE,22,4.2,-999.0,27,-99.99,,,0.00,Acu-Link.com,2013-04-09 20:26:00,
2013-04-09 13:42:00,75.0,36.8,29.84,NNE,22,1.7,-999.0,25,-99.99,,,0.00,Acu-Link.com,2013-04-09 20:42:00,
2013-04-09 13:57:00,75.6,35.2,29.84,SW,225,4.7,-999.0,23,-99.99,,,0.00,Acu-Link.com,2013-04-09 20:57:00,
2013-04-09 14:12:00,75.7,34.2,29.84,ENE,67,5.3,-999.0,22,-99.99,,,0.00,Acu-Link.com,2013-04-09 21:12:00,
2013-04-09 14:27:00,76.3,34.6,29.84,NE,45,3.7,-999.0,22,-99.99,,,0.00,Acu-Link.com,2013-04-09 21:27:00,
2013-04-09 14:42:00,76.8,33.9,29.83,West,270,3.2,-999.0,21,-99.99,,,0.00,Acu-Link.com,2013-04-09 21:42:00,
2013-04-09 14:57:00,77.4,34.4,29.83,ESE,112,4.7,-999.0,21,-99.99,,,0.00,Acu-Link.com,2013-04-09 21:57:00,
2013-04-09 15:13:00,77.0,35.2,29.83,SSW,202,2.2,-999.0,22,-99.99,,,0.00,Acu-Link.com,2013-04-09 22:13:00,
2013-04-09 15:28:00,77.5,35.6,29.83,NE,45,5.8,-999.0,22,-99.99,,,0.00,Acu-Link.com,2013-04-09 22:28:00,
2013-04-09 15:43:00,77.2,36.5,29.83,ENE,67,5.3,-999.0,23,-99.99,,,0.00,Acu-Link.com,2013-04-09 22:43:00,
2013-04-09 15:59:00,77.4,34.4,29.82,SSW,202,4.2,-999.0,21,-99.99,,,0.00,Acu-Link.com,2013-04-09 22:59:00,
2013-04-09 16:14:00,76.8,35.1,29.82,WNW,292,3.7,-999.0,22,-99.99,,,0.00,Acu-Link.com,2013-04-09 23:14:00,
2013-04-09 16:29:00,78.3,36.3,29.82,East,90,3.7,-999.0,22,-99.99,,,0.00,Acu-Link.com,2013-04-09 23:29:00,
2013-04-09 16:44:00,77.9,36.0,29.82,ESE,112,2.7,-999.0,22,-99.99,,,0.00,Acu-Link.com,2013-04-09 23:44:00,
2013-04-09 17:00:00,78.4,34.0,29.81,SW,225,4.2,-999.0,20,-99.99,,,0.00,Acu-Link.com,2013-04-10 00:00:00,
2013-04-09 17:15:00,77.9,32.3,29.81,East,90,4.2,-999.0,19,-99.99,,,0.00,Acu-Link.com,2013-04-10 00:15:00,
2013-04-09 17:30:00,78.6,35.4,29.81,ESE,112,3.7,-999.0,21,-99.99,,,0.00,Acu-Link.com,2013-04-10 00:30:00,
2013-04-09 17:45:00,78.1,29.7,29.81,East,90,6.3,-999.0,17,-99.99,,,0.00,Acu-Link.com,2013-04-10 00:45:00,
2013-04-09 19:02:00,75.4,33.9,29.82,NE,45,3.7,-999.0,22,-99.99,,,0.00,Acu-Link.com,2013-04-10 02:02:00,
2013-04-09 19:17:00,70.2,33.7,29.82,East,90,4.7,-999.0,26,-99.99,,,0.00,Acu-Link.com,2013-04-10 02:17:00,
2013-04-09 19:32:00,68.9,32.6,29.81,NNW,337,2.2,-999.0,26,-99.99,,,0.00,Acu-Link.com,2013-04-10 02:32:00,
2013-04-09 19:48:00,65.3,36.2,29.82,NNW,337,3.2,-999.0,34,-99.99,,,0.00,Acu-Link.com,2013-04-10 02:48:00,
2013-04-09 20:03:00,65.5,34.1,29.82,North,0,4.7,-999.0,31,-99.99,,,0.00,Acu-Link.com,2013-04-10 03:03:00,
2013-04-09 20:18:00,64.6,37.0,29.83,NW,315,3.7,-999.0,36,-99.99,,,0.00,Acu-Link.com,2013-04-10 03:18:00,
2013-04-09 20:34:00,63.9,35.7,29.84,WNW,292,1.1,-999.0,35,-99.99,,,0.00,Acu-Link.com,2013-04-10 03:34:00,
2013-04-09 20:49:00,61.9,36.7,29.85,NW,315,2.2,-999.0,39,-99.99,,,0.00,Acu-Link.com,2013-04-10 03:49:00,
2013-04-09 21:04:00,63.1,37.1,29.85,NNW,337,1.7,-999.0,38,-99.99,,,0.00,Acu-Link.com,2013-04-10 04:04:00,
2013-04-09 21:19:00,63.0,34.9,29.85,WSW,247,1.1,-999.0,35,-99.99,,,0.00,Acu-Link.com,2013-04-10 04:19:00,
2013-04-09 21:34:00,67.1,34.6,29.85,West,270,3.7,-999.0,30,-99.99,,,0.00,Acu-Link.com,2013-04-10 04:34:00,
2013-04-09 21:50:00,68.0,34.6,29.86,SSE,157,2.7,-999.0,29,-99.99,,,0.00,Acu-Link.com,2013-04-10 04:50:00,
2013-04-09 22:05:00,66.4,35.6,29.87,ESE,112,1.7,-999.0,32,-99.99,,,0.00,Acu-Link.com,2013-04-10 05:05:00,
2013-04-09 22:20:00,65.7,35.8,29.87,WNW,292,0.0,-999.0,33,-99.99,,,0.00,Acu-Link.com,2013-04-10 05:20:00,
2013-04-09 22:36:00,63.9,35.7,29.86,ENE,67,0.0,-999.0,35,-99.99,,,0.00,Acu-Link.com,2013-04-10 05:36:00,
2013-04-09 23:06:00,68.4,36.6,29.86,WNW,292,1.1,-999.0,31,-99.99,,,0.00,Acu-Link.com,2013-04-10 06:06:00,
2013-04-09 23:22:00,66.7,36.7,29.86,West,270,3.7,-999.0,33,-99.99,,,0.00,Acu-Link.com,2013-04-10 06:22:00,
2013-04-09 23:37:00,66.4,36.4,29.86,West,270,3.7,-999.0,33,-99.99,,,0.00,Acu-Link.com,2013-04-10 06:37:00,
2013-04-09 23:53:00,65.7,36.6,29.86,NNE,22,1.1,-999.0,34,-99.99,,,0.00,Acu-Link.com,2013-04-10 06:53:00,